Tracking 29487 objects as of 11-Sep-2024
HD Live streaming from Space Station
objects crossing your sky now

TITAN 3C TRANSTAGE DEB

Track TITAN 3C TRANSTAGE DEB now!
10-day predictions


NORAD ID: 1646
Int'l Code: 1965-082H
Perigee: 650.6 km
Apogee: 654.3 km
Inclination: 32.3 °
Period: 97.6 minutes
Semi major axis: 7023 km
RCS: 1.5264 m2 (large)
Launch date: October 15, 1965
Source: United States (US)
Launch site: AIR FORCE EASTERN TEST RANGE (AFETR)

Note: This is SATELLITE DEBRIS
Your satellite tracking list
Your tracking list is empty




NASA's NSSDC Master Catalog

Two Line Element Set (TLE):
1 01646U 65082H   24254.76878557  .00004648  00000-0  67376-3 0  9992
2 01646  32.3105 283.2770 0002632 120.1356 239.9557 14.74953211124861
Source of the keplerian elements: AFSPC